Showing default

S-NET D, 43186

Orbit data source: Space-Track

S-NET D, 43186 is a payload satellite owned by TUB (DE) in SSO that was launched on Thu, 01 Feb 2018 UTC via a SOYUZ-2-1A launch vehicle from the Vostochny Cosmodrome (VOSTO). Payload-class satellites include a variety of spacecraft equipped with specific instruments for various scientific and technological missions. These include communications satellites like Starlink; space stations such as the ISS; scientific satellites like the Hubble; Earth observation satellites from companies like Planet Labs, Umbra, and HawkEye 360; GPS; miniature CubeSats for education and research; and military/defense satellites.

Loading next visibility...
Identifier
43186, 2018-014G
Orbit
SSO
Country
Flag of DEDE / GER
Related business
Manufacturer
TUB
Mission
Operational Commercial Com/Tech
Bus & Motor
TUBIX10, Unknown motor
Mass
8 kg wet, 8 kg dry
Launch date (UTC)
2018-02-01 (8 years ago)
Launch vehicle
SOYUZ-2-1A
Launch site
Vostochny Cosmodrome (VOSTO)
Object type
Payload
Rocket body
Debris
Shape & HBR
Box, 0.1 m
Radar Cross Section
0.086 m², Medium (>0.1 m² and < 1m²)

Expand to show TLE details & history
Last TLE update: 13 hours ago

TLE from 13 hours ago
0 S-NET D
1 43186U 18014G   25258.29639399  .00007279  00000-0  41845-3 0  9998
2 43186  97.5500 160.2031 0007049 243.6787 116.3720 15.12763243417141
Epoch: 2025-09-15T07:06Z
TLE epoch observation values (Epoch: 2025-09-15T07:06:48.44Z)
Latitude
-0.00005°
Longitude
58.99819°
Altitude
533.019 km
Speed
7.595 km/s
True Right ascension
10h 40m 48s
True Declination
0° 00' 00"
Sunlit
Object was in daylight at epoch
Visualization orbit readout
Latitude
Unknown
Longitude
Unknown
Altitude
Unknown
Speed
Unknown
Apparent Right ascension
Unknown
Apparent Declination
Unknown
Sunlit
N/A
Visualization observer readout
Local Sidereal Time
12:46:57
Azimuth
Unknown
Elevation
Unknown
Doppler factor
Unknown
Orbital elements
Apogee altitude
529.625 km
Perigee altitude
519.893 km
Semi-major axis
6,902.896 km
Eccentricity
0.0007
Inclination
97.55°
RAAN
160.2031°
Arg. of periapsis
243.6787°
True anomaly
116.44434°
Mean anomaly
116.372°
Eccentric anomaly
116.40817°
Mean motion
3.78439 °/min
Orbital period
95.13 mins
BSTAR
0.00041845
Loading maneuver chart data...
Computing Atmospheric mass density...
Loading historical data...
Loading historical data...
Loading historical data...
Loading historical data...
Loading historical data...
Loading historical data...
Loading historical data...

Documentation

Showing up to 5 results
|